Location: Plainartige
(45.6866°N, 1.7993°E)
Time: 12:37:52
(UTC+00:00)

RS-15 - Pass Details

Date: 28 June 2022
Orbit: 1881 x 2163 km, 64.8° (Epoch: 13 August)

Event Time Altitude Azimuth Distance (km) Brightness Sun altitude
Rises 20:27:35 0° 301° (WNW) 5,661 12.5 -6.4°
Reaches altitude 10° 20:31:44 10° 311° (NW) 4,676 11.8 -6.9°
Maximum altitude 20:42:31 33° 12° (NNE) 3,205 9.5 -8.3°
Drops below altitude 10° 20:53:12 10° 74° (ENE) 4,643 9.8 -9.5°
Sets 20:57:17 0° 84° (E) 5,617 10.1 -10.0°
